FW8901 Weather Reports


Display with metric or nautical units.
time (UTC)temp
F
wind
direction
speed
MPH
gust
MPH
rain 1hr
in
rain 24hr
in
rain mn
in
humidity
%
barometer
mb
20260510023548 62 0.0 0.0 0.00 0.00 0.00 75 1009.7
20260510023054 62 0.0 0.0 0.00 0.00 0.00 74 1009.7
20260510022554 62 0.0 0.0 0.00 0.00 0.00 74 1009.8
20260510022050 62 0.0 0.0 0.00 0.00 0.00 74 1009.8
20260510021642 62 0.0 0.0 0.00 0.00 0.00 73 1009.7
20260510021049 63 0.0 0.0 0.00 0.00 0.00 73 1009.7
20260510020550 63 0.0 0.0 0.00 0.00 0.00 73 1009.6
20260510020059 63 0.0 0.0 0.00 0.00 0.00 72 1009.6
20260510015552 63 0.0 0.0 0.00 0.00 0.00 72 1009.5
20260510015050 63 0.0 0.0 0.00 0.00 0.00 72 1009.4
20260510014600 64 0.0 0.0 0.00 0.00 0.00 72 1009.4
20260510014049 64 0.0 0.0 0.00 0.00 0.00 72 1009.3
20260510013550 64 0.0 0.0 0.00 0.00 0.00 71 1009.3
20260510013107 64 0.0 0.0 0.00 0.00 0.00 71 1009.3
20260510012549 64 0.0 0.0 0.00 0.00 0.00 71 1009.2
20260510012049 65 0.0 0.0 0.00 0.00 0.00 70 1008.9
20260510011555 65 0.0 0.0 0.00 0.00 0.00 70 1008.9
20260510011048 65 0.0 0.0 0.00 0.00 0.00 70 1008.8
20260510010549 65 0.0 0.0 0.00 0.00 0.00 69 1008.7
20260510010100 66 0.0 0.0 0.00 0.00 0.00 69 1008.7
20260510005550 66 0.0 0.0 0.00 0.00 0.00 69 1008.7
20260510005049 66 0.0 0.0 0.00 0.00 0.00 68 1008.6
20260510004605 67 0.0 0.0 0.00 0.00 0.00 68 1008.6
20260510004049 67 0.0 0.0 0.00 0.00 0.00 68 1008.6
20260510003550 67 0.0 0.0 0.00 0.00 0.00 68 1008.4
20260510003103 68 0.0 0.0 0.00 0.00 0.00 67 1008.3
20260510002555 68 0.0 0.0 0.00 0.00 0.00 66 1008.4
20260510002049 68 0.0 0.0 0.00 0.00 0.00 66 1008.4
20260510001603 69 0.0 0.0 0.00 0.00 0.00 66 1008.5
20260510001049 69 0.0 0.0 0.00 0.00 0.00 65 1008.3
20260510000550 69 0.0 0.0 0.00 0.00 0.00 65 1008.3
20260510000055 70 0.0 0.0 0.00 0.00 0.00 64 1008.3
20260509235546 70 0.0 0.0 0.00 0.00 0.00 64 1008.2
20260509235049 70 0.0 0.0 0.00 0.00 0.00 62 1008.1
20260509234555 71 0.0 0.0 0.00 0.00 0.00 60 1008.1
20260509234109 71 0.0 0.0 0.00 0.00 0.00 60 1008.1
20260509233550 71 0.0 0.0 0.00 0.00 0.00 61 1008.0
20260509233054 72 0.0 0.0 0.00 0.00 0.00 60 1008.0
20260509232550 72 0.0 0.0 0.00 0.00 0.00 59 1008.0
20260509232050 72 0.0 0.0 0.00 0.00 0.00 59 1008.0
20260509231553 72 0.0 0.0 0.00 0.00 0.00 59 1008.0
20260509231049 73 0.0 0.0 0.00 0.00 0.00 58 1008.0
20260509230548 73 0.0 0.0 0.00 0.00 0.00 58 1008.0
20260509230054 73 0.0 0.0 0.00 0.00 0.00 58 1008.0
20260509225548 73 0.0 0.0 0.00 0.00 0.00 57 1007.9
20260509225049 73 0.0 0.0 0.00 0.00 0.00 59 1008.0
20260509224553 73 0.0 0.0 0.00 0.00 0.00 58 1008.0
20260509224047 73 0.0 0.0 0.00 0.00 0.00 57 1008.0
20260509223549 73 0.0 0.0 0.00 0.00 0.00 57 1008.0
20260509223057 73 0.0 0.0 0.00 0.00 0.00 58 1008.0
20260509222550 72 0.0 0.0 0.00 0.00 0.00 58 1008.1
20260509222049 73 0.0 0.0 0.00 0.00 0.00 58 1008.2
20260509221556 73 0.0 0.0 0.00 0.00 0.00 56 1008.0
20260509221048 73 0.0 0.0 0.00 0.00 0.00 56 1008.1
20260509220546 73 0.0 0.0 0.00 0.00 0.00 53 1008.1
20260509220058 73 0.0 0.0 0.00 0.00 0.00 55 1008.1
20260509215547 73 0.0 0.0 0.00 0.00 0.00 53 1008.1
20260509215047 73 0.0 0.0 0.00 0.00 0.00 53 1008.0
20260509214556 73 0.0 0.0 0.00 0.00 0.00 52 1008.1
20260509214046 73 0.0 0.0 0.00 0.00 0.00 52 1008.0
20260509213549 73 0.0 0.0 0.00 0.00 0.00 53 1008.0
20260509213114 73 0.0 0.0 0.00 0.00 0.00 50 1008.0
20260509212547 73 0.0 0.0 0.00 0.00 0.00 49 1007.9
20260509212048 74 0.0 0.0 0.00 0.00 0.00 50 1007.9
20260509211604 74 0.0 0.0 0.00 0.00 0.00 48 1007.9
20260509211048 74 0.0 0.0 0.00 0.00 0.00 49 1007.7
20260509210548 75 0.0 0.0 0.00 0.00 0.00 48 1007.7
20260509210056 75 0.0 0.0 0.00 0.00 0.00 52 1007.7
20260509205549 74 0.0 0.0 0.00 0.00 0.00 50 1007.7
20260509205051 75 0.0 0.0 0.00 0.00 0.00 48 1007.8
20260509204558 76 0.0 0.0 0.00 0.00 0.00 51 1007.7
20260509204048 75 0.0 0.0 0.00 0.00 0.00 50 1007.7
20260509203549 75 0.0 0.0 0.00 0.00 0.00 49 1007.7
20260509203101 76 0.0 0.0 0.00 0.00 0.00 46 1007.7
20260509202548 77 0.0 0.0 0.00 0.00 0.00 48 1007.7
20260509202048 77 0.0 0.0 0.00 0.00 0.00 47 1007.8
20260509201558 77 0.0 0.0 0.00 0.00 0.00 43 1007.8
20260509201048 76 0.0 0.0 0.00 0.00 0.00 45 1007.8
20260509200548 77 0.0 0.0 0.00 0.00 0.00 45 1007.8
20260509200055 77 0.0 0.0 0.00 0.00 0.00 45 1007.9
20260509195548 76 0.0 0.0 0.00 0.00 0.00 44 1007.9
20260509195047 76 0.0 0.0 0.00 0.00 0.00 46 1008.0
20260509194601 77 0.0 0.0 0.00 0.00 0.00 47 1008.1
20260509194047 76 0.0 0.0 0.00 0.00 0.00 47 1008.2
20260509193547 75 0.0 0.0 0.00 0.00 0.00 49 1008.3
20260509193058 74 0.0 0.0 0.00 0.00 0.00 52 1008.3
20260509192547 74 0.0 0.0 0.00 0.00 0.00 54 1008.5
20260509192047 73 0.0 0.0 0.00 0.00 0.00 56 1008.6
20260509191604 72 0.0 0.0 0.00 0.00 0.00 54 1008.6
20260509191049 73 0.0 0.0 0.00 0.00 0.00 53 1008.6
20260509190552 74 0.0 0.0 0.00 0.00 0.00 51 1008.7
20260509190053 74 0.0 0.0 0.00 0.00 0.00 56 1008.8
20260509185548 74 0.0 0.0 0.00 0.00 0.00 56 1008.8
20260509185048 72 0.0 0.0 0.00 0.00 0.00 58 1008.8
20260509184601 71 0.0 0.0 0.00 0.00 0.00 59 1008.9
20260509184048 71 0.0 0.0 0.00 0.00 0.00 61 1009.1
20260509183552 71 0.0 0.0 0.00 0.00 0.00 58 1009.2
20260509183101 72 0.0 0.0 0.00 0.00 0.00 58 1009.1
20260509182547 71 0.0 0.0 0.00 0.00 0.00 59 1009.3
20260509182048 70 0.0 0.0 0.00 0.00 0.00 61 1009.5
20260509181559 71 0.0 0.0 0.00 0.00 0.00 59 1009.6
20260509181047 71 0.0 0.0 0.00 0.00 0.00 59 1009.7
20260509180548 70 0.0 0.0 0.00 0.00 0.00 60 1009.7
20260509180116 70 0.0 0.0 0.00 0.00 0.00 61 1009.8
20260509175551 70 0.0 0.0 0.00 0.00 0.00 60 1009.7
20260509175046 69 0.0 0.0 0.00 0.00 0.00 60 1009.8
20260509174555 68 0.0 0.0 0.00 0.00 0.00 60 1009.9
20260509174045 68 0.0 0.0 0.00 0.00 0.00 61 1009.8
20260509173547 69 0.0 0.0 0.00 0.00 0.00 60 1010.0
20260509173106 69 0.0 0.0 0.00 0.00 0.00 60 1010.0
20260509172548 68 0.0 0.0 0.00 0.00 0.00 61 1010.2
20260509172048 68 0.0 0.0 0.00 0.00 0.00 63 1010.1
20260509171556 68 0.0 0.0 0.00 0.00 0.00 61 1010.1
20260509171047 68 0.0 0.0 0.00 0.00 0.00 61 1010.1
20260509170548 68 0.0 0.0 0.00 0.00 0.00 62 1010.1
20260509170057 68 0.0 0.0 0.00 0.00 0.00 60 1010.1
20260509165546 68 0.0 0.0 0.00 0.00 0.00 59 1010.1
20260509165046 68 0.0 0.0 0.00 0.00 0.00 59 1010.0
20260509164555 68 0.0 0.0 0.00 0.00 0.00 60 1010.0
20260509164047 69 0.0 0.0 0.00 0.00 0.00 57 1010.0
20260509163550 71 0.0 0.0 0.00 0.00 0.00 56 1010.1
20260509163059 69 0.0 0.0 0.00 0.00 0.00 58 1010.2
20260509162548 69 0.0 0.0 0.00 0.00 0.00 61 1010.3
20260509162047 68 0.0 0.0 0.00 0.00 0.00 61 1010.4
20260509161603 67 0.0 0.0 0.00 0.00 0.00 60 1010.5
20260509161048 67 0.0 0.0 0.00 0.00 0.00 59 1010.5
20260509160548 68 0.0 0.0 0.00 0.00 0.00 59 1010.5
20260509155546 67 0.0 0.0 0.00 0.00 0.00 59 1010.4
20260509155047 67 0.0 0.0 0.00 0.00 0.00 60 1010.5
20260509154555 67 0.0 0.0 0.00 0.00 0.00 61 1010.4
20260509154046 67 0.0 0.0 0.00 0.00 0.00 61 1010.4
20260509153556 67 0.0 0.0 0.00 0.00 0.00 60 1010.7
20260509153100 66 0.0 0.0 0.00 0.00 0.00 60 1010.7
20260509152548 67 0.0 0.0 0.00 0.00 0.00 61 1010.7
20260509152048 67 0.0 0.0 0.00 0.00 0.00 60 1010.6
20260509151554 67 0.0 0.0 0.00 0.00 0.00 62 1010.6
20260509151050 67 0.0 0.0 0.00 0.00 0.00 61 1010.5
20260509150548 66 0.0 0.0 0.00 0.00 0.00 62 1010.6
20260509150054 65 0.0 0.0 0.00 0.00 0.00 61 1010.6
20260509145546 65 0.0 0.0 0.00 0.00 0.00 64 1010.6
20260509145048 65 0.0 0.0 0.00 0.00 0.00 63 1010.6
20260509144553 64 0.0 0.0 0.00 0.00 0.00 64 1010.8
20260509144049 64 0.0 0.0 0.00 0.00 0.00 63 1010.8
20260509143611 64 0.0 0.0 0.00 0.00 0.00 64 1011.0
20260509143051 63 0.0 0.0 0.00 0.00 0.00 65 1011.1
20260509142548 63 0.0 0.0 0.00 0.00 0.00 66 1011.2
20260509142047 62 0.0 0.0 0.00 0.00 0.00 66 1011.2
20260509141555 62 0.0 0.0 0.00 0.00 0.00 67 1011.1
20260509141048 62 0.0 0.0 0.00 0.00 0.00 65 1011.1
20260509140551 62 0.0 0.0 0.00 0.00 0.00 67 1011.2
20260509140105 61 0.0 0.0 0.00 0.00 0.00 67 1011.4
20260509135547 61 0.0 0.0 0.00 0.00 0.00 67 1011.3
20260509135048 61 0.0 0.0 0.00 0.00 0.00 68 1011.4
20260509134552 60 0.0 0.0 0.00 0.00 0.00 67 1011.3
20260509134050 60 0.0 0.0 0.00 0.00 0.00 68 1011.3
20260509133546 60 0.0 0.0 0.00 0.00 0.00 67 1011.2
20260509133059 60 0.0 0.0 0.00 0.00 0.00 68 1011.2
20260509132545 59 0.0 0.0 0.00 0.00 0.00 69 1011.2
20260509132046 59 0.0 0.0 0.00 0.00 0.00 69 1011.2
20260509131555 59 0.0 0.0 0.00 0.00 0.00 71 1011.3
20260509131044 58 0.0 0.0 0.00 0.00 0.00 70 1011.4
20260509130549 58 0.0 0.0 0.00 0.00 0.00 70 1011.3
20260509130055 58 0.0 0.0 0.00 0.00 0.00 71 1011.4
20260509125558 58 0.0 0.0 0.00 0.00 0.00 70 1011.4
20260509125048 57 0.0 0.0 0.00 0.00 0.00 71 1011.4
20260509124557 57 0.0 0.0 0.00 0.00 0.00 71 1011.4
20260509124049 57 0.0 0.0 0.00 0.00 0.00 70 1011.5
20260509123548 57 0.0 0.0 0.00 0.00 0.00 70 1011.5
20260509123103 57 0.0 0.0 0.00 0.00 0.00 71 1011.4
20260509122548 57 0.0 0.0 0.00 0.00 0.00 70 1011.4
20260509122048 56 0.0 0.0 0.00 0.00 0.00 71 1011.4
20260509121553 56 0.0 0.0 0.00 0.00 0.00 71 1011.4
20260509121050 56 0.0 0.0 0.00 0.00 0.00 69 1011.3
20260509120549 56 0.0 0.0 0.00 0.00 0.00 69 1011.4
20260509120058 56 0.0 0.0 0.00 0.00 0.00 69 1011.4
20260509115544 56 0.0 0.0 0.00 0.00 0.00 69 1011.3
20260509115045 56 0.0 0.0 0.00 0.00 0.00 69 1011.2
20260509114553 56 0.0 0.0 0.00 0.00 0.00 68 1011.2
20260509114046 56 0.0 0.0 0.00 0.00 0.00 68 1011.2
20260509113549 56 0.0 0.0 0.00 0.00 0.00 68 1011.1
20260509113058 55 0.0 0.0 0.00 0.00 0.00 68 1011.1
20260509112549 55 0.0 0.0 0.00 0.00 0.00 67 1011.1
20260509112049 55 0.0 0.0 0.00 0.00 0.00 66 1011.1
20260509111557 55 0.0 0.0 0.00 0.00 0.00 67 1011.0
20260509111049 55 0.0 0.0 0.00 0.00 0.00 67 1011.0
20260509110551 55 0.0 0.0 0.00 0.00 0.00 67 1011.1
20260509110217 55 0.0 0.0 0.00 0.00 0.00 67 1011.1
20260509105545 55 0.0 0.0 0.00 0.00 0.00 66 1011.1
20260509105045 55 0.0 0.0 0.00 0.00 0.00 65 1011.2
20260509104554 55 0.0 0.0 0.00 0.00 0.00 65 1011.2
20260509104046 55 0.0 0.0 0.00 0.00 0.00 65 1011.3
20260509103547 55 0.0 0.0 0.00 0.00 0.00 67 1011.2
20260509103104 55 0.0 0.0 0.00 0.00 0.00 66 1011.1
20260509102547 55 0.0 0.0 0.00 0.00 0.00 66 1011.2
20260509102044 55 0.0 0.0 0.00 0.00 0.00 66 1011.1
20260509101613 55 0.0 0.0 0.00 0.00 0.00 66 1011.2
20260509101048 55 0.0 0.0 0.00 0.00 0.00 65 1011.1
20260509100549 55 0.0 0.0 0.00 0.00 0.00 65 1011.0
20260509100056 55 0.0 0.0 0.00 0.00 0.00 65 1010.9
20260509095548 55 0.0 0.0 0.00 0.00 0.00 64 1010.9
20260509095049 55 0.0 0.0 0.00 0.00 0.00 63 1010.8
20260509094601 55 0.0 0.0 0.00 0.00 0.00 65 1011.0
20260509094048 55 0.0 0.0 0.00 0.00 0.00 64 1011.0
20260509093548 55 0.0 0.0 0.00 0.00 0.00 65 1010.9
20260509093058 55 0.0 0.0 0.00 0.00 0.00 65 1011.0
20260509092549 55 0.0 0.0 0.00 0.00 0.00 65 1011.1
20260509092054 55 0.0 0.0 0.00 0.00 0.00 65 1011.0
20260509091558 55 0.0 0.0 0.00 0.00 0.00 65 1011.2
20260509091048 55 0.0 0.0 0.00 0.00 0.00 65 1011.2
20260509090548 55 0.0 0.0 0.00 0.00 0.00 65 1011.3
20260509085548 55 0.0 0.0 0.00 0.00 0.00 65 1011.4
20260509085051 55 0.0 0.0 0.00 0.00 0.00 65 1011.5
20260509084600 55 0.0 0.0 0.00 0.00 0.00 65 1011.5
20260509084049 55 0.0 0.0 0.00 0.00 0.00 65 1011.6
20260509083548 55 0.0 0.0 0.00 0.00 0.00 65 1011.6
20260509083116 55 0.0 0.0 0.00 0.00 0.00 65 1011.6
20260509082548 55 0.0 0.0 0.00 0.00 0.00 65 1011.7
20260509082052 55 0.0 0.0 0.00 0.00 0.00 65 1011.8
20260509081556 55 0.0 0.0 0.00 0.00 0.00 66 1011.8
20260509081049 55 0.0 0.0 0.00 0.00 0.00 65 1011.8
20260509080552 55 0.0 0.0 0.00 0.00 0.00 65 1011.9
20260509080059 54 0.0 0.0 0.00 0.00 0.00 65 1012.0
20260509075548 54 0.0 0.0 0.00 0.00 0.00 66 1012.0
20260509075047 54 0.0 0.0 0.00 0.00 0.00 66 1012.0
20260509074614 54 0.0 0.0 0.00 0.00 0.00 66 1012.1
20260509074046 54 0.0 0.0 0.00 0.00 0.00 66 1012.2
20260509073549 54 0.0 0.0 0.00 0.00 0.00 65 1012.2
20260509073110 54 0.0 0.0 0.00 0.00 0.00 65 1012.2
20260509072549 54 0.0 0.0 0.00 0.00 0.00 66 1012.1
20260509072048 54 0.0 0.0 0.00 0.00 0.00 66 1012.2
20260509071558 54 0.0 0.0 0.00 0.00 0.00 66 1012.2
20260509071049 54 0.0 0.0 0.00 0.00 0.00 66 1012.2
20260509070546 54 0.0 0.0 0.00 0.00 0.00 67 1012.2
20260509070059 54 0.0 0.0 0.00 0.00 0.00 67 1012.2
20260509065923 54 0.0 0.0 0.00 0.00 0.00 67 1012.1
20260509065048 54 0.0 0.0 0.00 0.00 0.00 66 1012.1
20260509064600 54 0.0 0.0 0.00 0.00 0.00 66 1012.0
20260509064047 54 0.0 0.0 0.00 0.00 0.00 66 1012.0
20260509063549 54 0.0 0.0 0.00 0.00 0.00 65 1012.1
20260509063101 54 0.0 0.0 0.00 0.00 0.00 65 1012.2
20260509062550 54 0.0 0.0 0.00 0.00 0.00 64 1012.3
20260509062049 55 0.0 0.0 0.00 0.00 0.00 64 1012.3
20260509061558 55 0.0 0.0 0.00 0.00 0.00 63 1012.3
20260509061047 55 0.0 0.0 0.00 0.00 0.00 62 1012.4
20260509060549 55 0.0 0.0 0.00 0.00 0.00 62 1012.3
20260509060118 55 0.0 0.0 0.00 0.00 0.00 62 1012.4
20260509055545 55 0.0 0.0 0.00 0.00 0.00 62 1012.5
20260509055048 55 0.0 0.0 0.00 0.00 0.00 62 1012.4
20260509054555 55 0.0 0.0 0.00 0.00 0.00 62 1012.3
20260509054048 55 0.0 0.0 0.00 0.00 0.00 62 1012.2
20260509053548 55 0.0 0.0 0.00 0.00 0.00 61 1012.3
20260509053109 55 0.0 0.0 0.00 0.00 0.00 61 1012.3
20260509052548 56 0.0 0.0 0.00 0.00 0.00 61 1012.4
20260509052048 56 0.0 0.0 0.00 0.00 0.00 61 1012.3
20260509051606 56 0.0 0.0 0.00 0.00 0.00 61 1012.4
20260509051045 56 0.0 0.0 0.00 0.00 0.00 61 1012.4
20260509050550 56 0.0 0.0 0.00 0.00 0.00 60 1012.4
20260509045547 56 0.0 0.0 0.00 0.00 0.00 59 1012.3
20260509045045 56 0.0 0.0 0.00 0.00 0.00 59 1012.4
20260509044557 56 0.0 0.0 0.00 0.00 0.00 60 1012.2
20260509044049 56 0.0 0.0 0.00 0.00 0.00 59 1012.3
20260509043546 56 0.0 0.0 0.00 0.00 0.00 58 1012.3
20260509043101 56 0.0 0.0 0.00 0.00 0.00 59 1012.3
20260509042548 56 0.0 0.0 0.00 0.00 0.00 58 1012.3
20260509042049 56 0.0 0.0 0.00 0.00 0.00 57 1012.3
20260509041555 56 0.0 0.0 0.00 0.00 0.00 57 1012.3
20260509041049 56 0.0 0.0 0.00 0.00 0.00 58 1012.4
20260509040545 56 0.0 0.0 0.00 0.00 0.00 58 1012.4
20260509040108 57 0.0 0.0 0.00 0.00 0.00 59 1012.4
20260509035555 57 0.0 0.0 0.00 0.00 0.00 60 1012.4
20260509035049 57 0.0 0.0 0.00 0.00 0.00 58 1012.5
20260509034603 57 0.0 0.0 0.00 0.00 0.00 60 1012.5
20260509034048 57 0.0 0.0 0.00 0.00 0.00 59 1012.5
20260509033548 57 0.0 0.0 0.00 0.00 0.00 60 1012.7
20260509033126 57 0.0 0.0 0.00 0.00 0.00 59 1012.7
20260509032546 57 0.0 0.0 0.00 0.00 0.00 60 1012.8
20260509032049 57 0.0 0.0 0.00 0.00 0.00 61 1012.8
20260509031601 57 0.0 0.0 0.00 0.00 0.00 59 1012.7
20260509031050 57 0.0 0.0 0.00 0.00 0.00 59 1012.8
20260509030549 57 0.0 0.0 0.00 0.00 0.00 58 1012.8
20260509030058 57 0.0 0.0 0.00 0.00 0.00 58 1012.8
20260509025704 58 0.0 0.0 0.00 0.00 0.00 57 1012.9
20260509025046 58 0.0 0.0 0.00 0.00 0.00 59 1012.9
20260509024601 58 0.0 0.0 0.00 0.00 0.00 60 1012.9
20260509024047 58 0.0 0.0 0.00 0.00 0.00 59 1012.9